Location: Ernez
(36.4595°N, 29.8755°E)
Time: 07:46:14
(UTC+00:00)

Cosmos 2251 Rocket - Pass Details

Date: 13 November 2025
Orbit: 760 x 788 km, 74.0° (Epoch: 05 December)

Event Time Altitude Azimuth Distance (km) Brightness Sun altitude
Rises 16:56:12 0° 207° (SSW) 3,218 7.2 -24.8°
Reaches altitude 10° 16:58:36 10° 211° (SSW) 2,300 6.4 -25.3°
Maximum altitude 17:03:43 57° 290° (WNW) 905 4.0 -26.3°
Enters shadow 17:06:33 26° 359° (N) 1,481 4.9 -26.9°
